Buoy 13569

sailwx.info

Track history (hours):
 
Tides and Currents Weather Stations Pressure Air Temp Water Temp Dewpoint Dewpoint Depression Visibility Wind Speed Wind Dir Waves Ship Positions

Drifting buoy 13569

Last reported at 2014-Oct-24 12:00 UTC. Time now 2014-Oct-24 14:44 UTC.
Position N 33°50' W 029°31'.

Barometer 1015.2 mb
Water temperature 22.2 ° C

Date/timePositionNaut miles runAvg speedWind from/ knotsBaromVisibWave heightAir tempDewpointWater temp
2014-Oct-24 12:00N 33°50' W 029°31'0 0.2 1015.2 22.2
2014-Oct-24 11:00N 33°50' W 029°31'0 0.1 1015.0 22.2
2014-Oct-24 07:00N 33°50' W 029°31'1 0.5 1012.9 22.2
2014-Oct-24 05:00N 33°50' W 029°30'0 0.0 1012.0 22.3
2014-Oct-24 04:00N 33°50' W 029°30'1 0.5 1012.0 22.3
2014-Oct-24 02:00N 33°51' W 029°30'0 0.0 1012.2 22.3
2014-Oct-24 00:00N 33°51' W 029°30'0 0.0 1012.5 22.4
2014-Oct-23 23:00N 33°51' W 029°30'1 0.3 1012.5 22.3
2014-Oct-23 20:00N 33°51' W 029°30'0 0.0 1010.9 22.2
2014-Oct-23 19:00N 33°51' W 029°30'1 1.1 1010.0 22.2
2014-Oct-23 18:00N 33°50' W 029°29'1 0.6 1009.5 22.2
2014-Oct-23 16:00N 33°49' W 029°28'0 0.0 1009.0 22.2
2014-Oct-23 13:00N 33°49' W 029°28'1 0.9 1009.0 22.2
2014-Oct-23 12:00N 33°49' W 029°27'0 0.0 1009.0 22.2
2014-Oct-23 11:00N 33°49' W 029°27'1 0.6 1009.2 22.2
2014-Oct-23 10:00N 33°49' W 029°27'0 0.1 1009.0 22.2
2014-Oct-23 07:00N 33°49' W 029°27'0 0.3 1008.5 22.2
2014-Oct-23 06:00N 33°49' W 029°28'0 0.2 1008.2 22.2
2014-Oct-23 03:00N 33°49' W 029°28'3 0.7 1009.0 22.2
2014-Oct-22 23:00N 33°46' W 029°26'1 0.1 1009.2 22.2
2014-Oct-22 17:00N 33°47' W 029°26'0 0.2 1007.2 22.3
2014-Oct-22 16:00N 33°47' W 029°26'1 0.2 1006.7 22.3
2014-Oct-22 11:00N 33°48' W 029°25'0 0.0 1007.0 22.3
2014-Oct-22 07:00N 33°48' W 029°25'3 0.7 1004.4 22.2
2014-Oct-22 03:00N 33°46' W 029°23'3 0.8 1003.9 22.2
2014-Oct-21 23:00N 33°48' W 029°20'0 0.0 1004.2 22.2
2014-Oct-21 22:00N 33°48' W 029°20'0 0.0 1004.0 22.2
2014-Oct-21 21:00N 33°48' W 029°20'0 0.0 1003.0 22.2
2014-Oct-21 19:00N 33°48' W 029°20'0 0.0 1002.0 22.3
2014-Oct-21 17:00N 33°48' W 029°20'0 0.5 1002.2 22.3
2014-Oct-21 16:00N 33°48' W 029°20'0 0.0 1003.0 22.3
2014-Oct-21 15:00N 33°48' W 029°20'2 0.7 1004.0 22.3
2014-Oct-21 12:00N 33°48' W 029°18'2 0.5 1006.2 22.3
2014-Oct-21 08:00N 33°49' W 029°15'4 0.4 1007.2 22.3
2014-Oct-20 23:00N 33°50' W 029°11'7 1.1 1012.0 22.4
2014-Oct-20 17:00N 33°54' W 029°04'0 0.0 1012.9 22.4
2014-Oct-20 16:00N 33°54' W 029°04'0 0.0 1013.2 22.4
2014-Oct-20 15:00N 33°54' W 029°04'0 0.0 1013.5 22.4
2014-Oct-20 09:00N 33°54' W 029°04'1 0.6 1016.0 22.5
2014-Oct-20 08:00N 33°54' W 029°04'2 1.7 1016.0 22.5
2014-Oct-20 07:00N 33°55' W 029°02'0 0.0 1016.0 22.5
2014-Oct-20 05:00N 33°55' W 029°02'3 0.6 1016.4 22.5
2014-Oct-20 00:00N 33°57' W 028°60'0 0.4 1018.2 22.6
2014-Oct-19 23:00N 33°57' W 028°59'1 0.3 1018.5 22.6
2014-Oct-19 20:00N 33°58' W 028°59'0 0.0 1018.5 22.7
2014-Oct-19 19:00N 33°58' W 028°59'0 0.3 1018.4 22.7
2014-Oct-19 18:00N 33°58' W 028°59'0 0.0 1018.2 22.7
2014-Oct-19 17:00N 33°58' W 028°59'4 0.6 1018.0 22.7
2014-Oct-19 10:00N 34°00' W 028°55'0 0.0 1019.5 22.7
2014-Oct-19 08:00N 34°00' W 028°55'1 0.7 1018.4 22.7
2014-Oct-19 07:00N 34°01' W 028°54'0 0.0 1018.0 22.7
2014-Oct-19 06:00N 34°01' W 028°54'3 1.4 1017.9 22.7
2014-Oct-19 04:00N 34°03' W 028°53'0 0.0 1017.7 22.8
2014-Oct-19 00:00N 34°03' W 028°53'1 0.2 1017.9 22.8
2014-Oct-18 19:00N 34°04' W 028°53'0 0.0 1015.0 22.9
2014-Oct-18 18:00N 34°04' W 028°53'3 0.6 1014.5 22.9
2014-Oct-18 12:00N 34°06' W 028°50'3 3.3 1014.0 22.9
2014-Oct-18 11:00N 34°09' W 028°49'1 0.1 1014.0 22.9
2014-Oct-18 07:00N 34°10' W 028°49'1 0.5 1011.7 22.9
2014-Oct-18 05:00N 34°11' W 028°49'2 0.3 1011.0 23.0
2014-Oct-17 23:00N 34°13' W 028°49'0 0.0 1011.7 23.0
2014-Oct-17 22:00N 34°13' W 028°49'1 0.4 1011.7 23.0
2014-Oct-17 20:00N 34°13' W 028°50'0 0.0 1011.2 23.0
2014-Oct-17 18:00N 34°13' W 028°50'1 0.3 1010.4 23.1
2014-Oct-17 15:00N 34°13' W 028°49'2 0.5 1009.9 23.1
2014-Oct-17 11:00N 34°15' W 028°47'3 0.9 1010.5 23.1
2014-Oct-17 08:00N 34°17' W 028°47'2 0.9 1008.5 23.1
2014-Oct-17 06:00N 34°18' W 028°49'0 0.0 1007.7 23.1
2014-Oct-17 04:00N 34°18' W 028°49'5 0.5 1008.4 23.1
2014-Oct-16 18:00N 34°23' W 028°49'1 1.3 1011.2 23.2
2014-Oct-16 17:00N 34°23' W 028°50'2 0.5 1011.5 23.3
2014-Oct-16 12:00N 34°25' W 028°49'0 0.0 1014.0 23.2
2014-Oct-16 11:00N 34°25' W 028°49'5 0.3 1013.9 23.2
2014-Oct-15 20:00N 34°30' W 028°48'0 0.0 1008.7 23.3
2014-Oct-15 18:00N 34°30' W 028°48'0 0.1 1007.5 23.3
2014-Oct-15 16:00N 34°30' W 028°48'0 0.1 1007.9 23.3
2014-Oct-15 14:00N 34°30' W 028°48'1 0.5 1008.2 23.3
2014-Oct-15 13:00N 34°30' W 028°48'0 0.0 1010.2 23.3
2014-Oct-15 12:00N 34°30' W 028°48'3 0.6 1010.0 23.3
2014-Oct-15 07:00N 34°33' W 028°46'0 0.0 1009.0 23.4
2014-Oct-15 06:00N 34°33' W 028°46'1 0.6 1009.5 23.4
2014-Oct-15 04:00N 34°33' W 028°47'1 0.3 1009.5 23.4
2014-Oct-15 02:00N 34°34' W 028°47'0 0.0 1010.5 23.4
2014-Oct-15 00:00N 34°34' W 028°47'1 0.9 1011.5 23.4
2014-Oct-14 23:00N 34°35' W 028°47'2 0.3 1011.7 23.4
2014-Oct-14 18:00N 34°36' W 028°47'   1010.5 23.4
Track history (hours):
 
Tides and Currents Weather Stations Pressure Air Temp Water Temp Dewpoint Dewpoint Depression Visibility Wind Speed Wind Dir Waves Ship Positions

Drifting buoy 13569

Last reported at 2014-Oct-24 12:00 UTC. Time now 2014-Oct-24 14:44 UTC.
Position N 33°50' W 029°31'.

Barometer 1015.2 mb
Water temperature 22.2 ° C

Date/timePositionNaut miles runAvg speedWind from/ knotsBaromVisibWave heightAir tempDewpointWater temp
2014-Oct-24 12:00N 33°50' W 029°31'0 0.2 1015.2 22.2
2014-Oct-24 11:00N 33°50' W 029°31'0 0.1 1015.0 22.2
2014-Oct-24 07:00N 33°50' W 029°31'1 0.5 1012.9 22.2
2014-Oct-24 05:00N 33°50' W 029°30'0 0.0 1012.0 22.3
2014-Oct-24 04:00N 33°50' W 029°30'1 0.5 1012.0 22.3
2014-Oct-24 02:00N 33°51' W 029°30'0 0.0 1012.2 22.3
2014-Oct-24 00:00N 33°51' W 029°30'0 0.0 1012.5 22.4
2014-Oct-23 23:00N 33°51' W 029°30'1 0.3 1012.5 22.3
2014-Oct-23 20:00N 33°51' W 029°30'0 0.0 1010.9 22.2
2014-Oct-23 19:00N 33°51' W 029°30'1 1.1 1010.0 22.2
2014-Oct-23 18:00N 33°50' W 029°29'1 0.6 1009.5 22.2
2014-Oct-23 16:00N 33°49' W 029°28'0 0.0 1009.0 22.2
2014-Oct-23 13:00N 33°49' W 029°28'1 0.9 1009.0 22.2
2014-Oct-23 12:00N 33°49' W 029°27'0 0.0 1009.0 22.2
2014-Oct-23 11:00N 33°49' W 029°27'1 0.6 1009.2 22.2
2014-Oct-23 10:00N 33°49' W 029°27'0 0.1 1009.0 22.2
2014-Oct-23 07:00N 33°49' W 029°27'0 0.3 1008.5 22.2
2014-Oct-23 06:00N 33°49' W 029°28'0 0.2 1008.2 22.2
2014-Oct-23 03:00N 33°49' W 029°28'3 0.7 1009.0 22.2
2014-Oct-22 23:00N 33°46' W 029°26'1 0.1 1009.2 22.2
2014-Oct-22 17:00N 33°47' W 029°26'0 0.2 1007.2 22.3
2014-Oct-22 16:00N 33°47' W 029°26'1 0.2 1006.7 22.3
2014-Oct-22 11:00N 33°48' W 029°25'0 0.0 1007.0 22.3
2014-Oct-22 07:00N 33°48' W 029°25'3 0.7 1004.4 22.2
2014-Oct-22 03:00N 33°46' W 029°23'3 0.8 1003.9 22.2
2014-Oct-21 23:00N 33°48' W 029°20'0 0.0 1004.2 22.2
2014-Oct-21 22:00N 33°48' W 029°20'0 0.0 1004.0 22.2
2014-Oct-21 21:00N 33°48' W 029°20'0 0.0 1003.0 22.2
2014-Oct-21 19:00N 33°48' W 029°20'0 0.0 1002.0 22.3
2014-Oct-21 17:00N 33°48' W 029°20'0 0.5 1002.2 22.3
2014-Oct-21 16:00N 33°48' W 029°20'0 0.0 1003.0 22.3
2014-Oct-21 15:00N 33°48' W 029°20'2 0.7 1004.0 22.3
2014-Oct-21 12:00N 33°48' W 029°18'2 0.5 1006.2 22.3
2014-Oct-21 08:00N 33°49' W 029°15'4 0.4 1007.2 22.3
2014-Oct-20 23:00N 33°50' W 029°11'7 1.1 1012.0 22.4
2014-Oct-20 17:00N 33°54' W 029°04'0 0.0 1012.9 22.4
2014-Oct-20 16:00N 33°54' W 029°04'0 0.0 1013.2 22.4
2014-Oct-20 15:00N 33°54' W 029°04'0 0.0 1013.5 22.4
2014-Oct-20 09:00N 33°54' W 029°04'1 0.6 1016.0 22.5
2014-Oct-20 08:00N 33°54' W 029°04'2 1.7 1016.0 22.5
2014-Oct-20 07:00N 33°55' W 029°02'0 0.0 1016.0 22.5
2014-Oct-20 05:00N 33°55' W 029°02'3 0.6 1016.4 22.5
2014-Oct-20 00:00N 33°57' W 028°60'0 0.4 1018.2 22.6
2014-Oct-19 23:00N 33°57' W 028°59'1 0.3 1018.5 22.6
2014-Oct-19 20:00N 33°58' W 028°59'0 0.0 1018.5 22.7
2014-Oct-19 19:00N 33°58' W 028°59'0 0.3 1018.4 22.7
2014-Oct-19 18:00N 33°58' W 028°59'0 0.0 1018.2 22.7
2014-Oct-19 17:00N 33°58' W 028°59'4 0.6 1018.0 22.7
2014-Oct-19 10:00N 34°00' W 028°55'0 0.0 1019.5 22.7
2014-Oct-19 08:00N 34°00' W 028°55'1 0.7 1018.4 22.7
2014-Oct-19 07:00N 34°01' W 028°54'0 0.0 1018.0 22.7
2014-Oct-19 06:00N 34°01' W 028°54'3 1.4 1017.9 22.7
2014-Oct-19 04:00N 34°03' W 028°53'0 0.0 1017.7 22.8
2014-Oct-19 00:00N 34°03' W 028°53'1 0.2 1017.9 22.8
2014-Oct-18 19:00N 34°04' W 028°53'0 0.0 1015.0 22.9
2014-Oct-18 18:00N 34°04' W 028°53'3 0.6 1014.5 22.9
2014-Oct-18 12:00N 34°06' W 028°50'3 3.3 1014.0 22.9
2014-Oct-18 11:00N 34°09' W 028°49'1 0.1 1014.0 22.9
2014-Oct-18 07:00N 34°10' W 028°49'1 0.5 1011.7 22.9
2014-Oct-18 05:00N 34°11' W 028°49'2 0.3 1011.0 23.0
2014-Oct-17 23:00N 34°13' W 028°49'0 0.0 1011.7 23.0
2014-Oct-17 22:00N 34°13' W 028°49'1 0.4 1011.7 23.0
2014-Oct-17 20:00N 34°13' W 028°50'0 0.0 1011.2 23.0
2014-Oct-17 18:00N 34°13' W 028°50'1 0.3 1010.4 23.1
2014-Oct-17 15:00N 34°13' W 028°49'2 0.5 1009.9 23.1
2014-Oct-17 11:00N 34°15' W 028°47'3 0.9 1010.5 23.1
2014-Oct-17 08:00N 34°17' W 028°47'2 0.9 1008.5 23.1
2014-Oct-17 06:00N 34°18' W 028°49'0 0.0 1007.7 23.1
2014-Oct-17 04:00N 34°18' W 028°49'5 0.5 1008.4 23.1
2014-Oct-16 18:00N 34°23' W 028°49'1 1.3 1011.2 23.2
2014-Oct-16 17:00N 34°23' W 028°50'2 0.5 1011.5 23.3
2014-Oct-16 12:00N 34°25' W 028°49'0 0.0 1014.0 23.2
2014-Oct-16 11:00N 34°25' W 028°49'5 0.3 1013.9 23.2
2014-Oct-15 20:00N 34°30' W 028°48'0 0.0 1008.7 23.3
2014-Oct-15 18:00N 34°30' W 028°48'0 0.1 1007.5 23.3
2014-Oct-15 16:00N 34°30' W 028°48'0 0.1 1007.9 23.3
2014-Oct-15 14:00N 34°30' W 028°48'1 0.5 1008.2 23.3
2014-Oct-15 13:00N 34°30' W 028°48'0 0.0 1010.2 23.3
2014-Oct-15 12:00N 34°30' W 028°48'3 0.6 1010.0 23.3
2014-Oct-15 07:00N 34°33' W 028°46'0 0.0 1009.0 23.4
2014-Oct-15 06:00N 34°33' W 028°46'1 0.6 1009.5 23.4
2014-Oct-15 04:00N 34°33' W 028°47'1 0.3 1009.5 23.4
2014-Oct-15 02:00N 34°34' W 028°47'0 0.0 1010.5 23.4
2014-Oct-15 00:00N 34°34' W 028°47'1 0.9 1011.5 23.4
2014-Oct-14 23:00N 34°35' W 028°47'2 0.3 1011.7 23.4
2014-Oct-14 18:00N 34°36' W 028°47'   1010.5 23.4

Dump ship's entire track history